Find Starlink 34437

NORAD ID: 64346 Int'l Des: 2025-126 Owner: SPXS Country: US Constellation: starlink operational
LEOCIRCULAR

当前视图

正在加载3D地球...

About Starlink 34437

Starlink 34437 (NORAD 64346) is a starlink constellation satellite (v2 mini) launched Jun 13, 2025 by SPXS of US. It operates in LEO, CIRCULAR orbit with a mass of 575.00 kg.

即将过境

Passes for default location (London). Set your location on the main map for personalized predictions.

高度历史

Loading altitude history...

两行轨道根数

1 64346U 25126C 26263.42938989 .00009410 00000-0 33123-3 0 9999
2 64346 70.0002 261.3943 0004049 283.9768 76.0957 15.29592023 69908
Epoch: Sep 20, 2026 • Age: 40 hours

当前状态

高度 483.0 km
远地点 / 近地点 N/A
速度 7.63 km/s
星下点 34.21°N, 29.29°E
发射日期 Jun 13, 2025
运行时间 1.2 years
类型 internet

技术详情

分类 Payload
质量 575.00 kg
干质量 530.00 kg
长度 0.30 m
跨度 29.00 m
形状 ? Box + pan
制造商 SPXS
平台类型 Starlink V2MO
阶段状态 In Orbit
所有者/国家 SPXS/US

Most Searched